SB KEPS @ AMSAT $ORB11097.O Orbital Elements 11097.OSCAR
HR AMSAT ORBITAL ELEMENTS FOR OSCAR SATELLITES FROM WA5QGD FORT WORTH,TX April 7, 2011 Send Subscribe/unsubscribe to KEPS at http://www.amsat.org/mailman/listinfo/keps BID: ORB11097.O TO ALL RADIO AMATEURS BT
Satellite: AO-07 Catalog number: 07530 Epoch time: 11097.60760453 Element set: 47 Inclination: 101.3942 deg RA of node: 106.9331 deg Eccentricity: 0.0012093 Arg of perigee: 058.1726 deg Mean anomaly: 302.0519 deg Mean motion: 12.53581871 rev/day Decay rate: -2.7e-07 rev/day^2 Epoch rev: 66534 Checksum: 275
Satellite: FO-29 Catalog number: 24278 Epoch time: 11096.91526350 Element set: 0557 Inclination: 098.5371 deg RA of node: 250.6848 deg Eccentricity: 0.0351424 Arg of perigee: 082.0218 deg Mean anomaly: 282.0632 deg Mean motion: 13.52959291 rev/day Decay rate: -5.2e-07 rev/day^2 Epoch rev: 72282 Checksum: 314
Satellite: SO-33 Catalog number: 25509 Epoch time: 11097.71557298 Element set: 939 Inclination: 031.4368 deg RA of node: 282.8880 deg Eccentricity: 0.0353531 Arg of perigee: 345.2936 deg Mean anomaly: 013.7589 deg Mean motion: 14.28382621 rev/day Decay rate: 4.51e-06 rev/day^2 Epoch rev: 65019 Checksum: 334
Satellite: RS-22 Catalog number: 27939 Epoch time: 11097.73664501 Element set: 145 Inclination: 097.8556 deg RA of node: 315.0714 deg Eccentricity: 0.0012915 Arg of perigee: 204.3133 deg Mean anomaly: 155.7464 deg Mean motion: 14.63546653 rev/day Decay rate: 5.96e-06 rev/day^2 Epoch rev: 40203 Checksum: 303
Satellite: VO-52 Catalog number: 28650 Epoch time: 11096.79815065 Element set: 761 Inclination: 097.6502 deg RA of node: 143.0993 deg Eccentricity: 0.0027714 Arg of perigee: 037.9618 deg Mean anomaly: 322.3505 deg Mean motion: 14.81980029 rev/day Decay rate: 1.013e-05 rev/day^2 Epoch rev: 32017 Checksum: 302
Satellite: SO-67 Catalog number: 35870 Epoch time: 11097.75639126 Element set: 719 Inclination: 097.2878 deg RA of node: 143.4355 deg Eccentricity: 0.0004094 Arg of perigee: 128.2691 deg Mean anomaly: 008.6721 deg Mean motion: 15.21565322 rev/day Decay rate: 4.254e-05 rev/day^2 Epoch rev: 8623 Checksum: 321
Satellite: HO-68 Catalog number: 36122 Epoch time: 11097.70335782 Element set: 264 Inclination: 100.4228 deg RA of node: 159.5632 deg Eccentricity: 0.0007817 Arg of perigee: 029.5128 deg Mean anomaly: 330.6423 deg Mean motion: 13.16285059 rev/day Decay rate: -4.4e-07 rev/day^2 Epoch rev: 6296 Checksum: 295
/EX SB KEPS @ AMSAT $ORB11097.D Orbital Elements 11097.MICROS
HR AMSAT ORBITAL ELEMENTS FOR THE MICROSATS FROM WA5QGD FORT WORTH,TX April 7, 2011 Send Subscribe/unsubscribe to KEPS at http://www.amsat.org/mailman/listinfo/keps BID: ORB11097.D TO ALL RADIO AMATEURS BT
Satellite: UO-11 Catalog number: 14781 Epoch time: 11097.82413601 Element set: 515 Inclination: 098.0132 deg RA of node: 154.7311 deg Eccentricity: 0.0009447 Arg of perigee: 012.9797 deg Mean anomaly: 347.1655 deg Mean motion: 14.79929142 rev/day Decay rate: 6.09e-06 rev/day^2 Epoch rev: 45538 Checksum: 310
Satellite: AO-16 Catalog number: 20439 Epoch time: 11096.95750084 Element set: 0159 Inclination: 098.3768 deg RA of node: 048.9827 deg Eccentricity: 0.0011538 Arg of perigee: 019.2194 deg Mean anomaly: 340.9417 deg Mean motion: 14.31907260 rev/day Decay rate: 1.68e-06 rev/day^2 Epoch rev: 10742 Checksum: 318
Satellite: LO-19 Catalog number: 20442 Epoch time: 11096.97831533 Element set: 0079 Inclination: 098.3398 deg RA of node: 053.6308 deg Eccentricity: 0.0012215 Arg of perigee: 012.8454 deg Mean anomaly: 347.3035 deg Mean motion: 14.32134438 rev/day Decay rate: 2.40e-06 rev/day^2 Epoch rev: 10760 Checksum: 282
Satellite: AO-27 Catalog number: 22825 Epoch time: 11096.88820116 Element set: 0793 Inclination: 098.5252 deg RA of node: 042.8347 deg Eccentricity: 0.0009217 Arg of perigee: 122.0506 deg Mean anomaly: 238.1568 deg Mean motion: 14.29336752 rev/day Decay rate: 2.52e-06 rev/day^2 Epoch rev: 91400 Checksum: 300
Satellite: IO-26 Catalog number: 22826 Epoch time: 11097.74056310 Element set: 530 Inclination: 098.5201 deg RA of node: 044.1667 deg Eccentricity: 0.0009639 Arg of perigee: 113.7726 deg Mean anomaly: 246.4474 deg Mean motion: 14.29597358 rev/day Decay rate: 1.44e-06 rev/day^2 Epoch rev: 91424 Checksum: 310
Satellite: GO-32 Catalog number: 25397 Epoch time: 11096.62385528 Element set: 0449 Inclination: 098.3232 deg RA of node: 093.0249 deg Eccentricity: 0.0002225 Arg of perigee: 113.6169 deg Mean anomaly: 246.5236 deg Mean motion: 14.23201346 rev/day Decay rate: -1.13e-06 rev/day^2 Epoch rev: 66178 Checksum: 294
Satellite: NO-44 Catalog number: 26931 Epoch time: 11097.73358311 Element set: 721 Inclination: 067.0513 deg RA of node: 165.0643 deg Eccentricity: 0.0007227 Arg of perigee: 269.2019 deg Mean anomaly: 090.8262 deg Mean motion: 14.29645946 rev/day Decay rate: 1.0e-08 rev/day^2 Epoch rev: 49685 Checksum: 304
Satellite: SO-50 Catalog number: 27607 Epoch time: 11096.71700708 Element set: 433 Inclination: 064.5585 deg RA of node: 184.8423 deg Eccentricity: 0.0064989 Arg of perigee: 337.4727 deg Mean anomaly: 022.3513 deg Mean motion: 14.71687694 rev/day Decay rate: 6.28e-06 rev/day^2 Epoch rev: 44557 Checksum: 336
Satellite: CO-55 Catalog number: 27844 Epoch time: 11097.54324958 Element set: 82 Inclination: 098.7059 deg RA of node: 107.2707 deg Eccentricity: 0.0010440 Arg of perigee: 045.8406 deg Mean anomaly: 314.3629 deg Mean motion: 14.20789733 rev/day Decay rate: 7.10e-06 rev/day^2 Epoch rev: 40288 Checksum: 313
Satellite: CO-57 Catalog number: 27848 Epoch time: 11096.56011259 Element set: 30 Inclination: 098.7146 deg RA of node: 105.4657 deg Eccentricity: 0.0010562 Arg of perigee: 052.3016 deg Mean anomaly: 307.9130 deg Mean motion: 14.20570111 rev/day Decay rate: 2.01e-06 rev/day^2 Epoch rev: 40269 Checksum: 263
Satellite: AO-51 Catalog number: 28375 Epoch time: 11097.48132580 Element set: 938 Inclination: 098.0915 deg RA of node: 079.6682 deg Eccentricity: 0.0083314 Arg of perigee: 285.2699 deg Mean anomaly: 073.9303 deg Mean motion: 14.40740634 rev/day Decay rate: 1.31e-06 rev/day^2 Epoch rev: 35588 Checksum: 332
Satellite: CP3 Catalog number: 31129 Epoch time: 11096.64237937 Element set: 837 Inclination: 097.9065 deg RA of node: 124.9728 deg Eccentricity: 0.0102959 Arg of perigee: 043.6931 deg Mean anomaly: 317.2338 deg Mean motion: 14.52424550 rev/day Decay rate: 9.00e-06 rev/day^2 Epoch rev: 21045 Checksum: 305
Satellite: CO-65 Catalog number: 32785 Epoch time: 11097.65601493 Element set: 957 Inclination: 097.8552 deg RA of node: 162.8798 deg Eccentricity: 0.0015803 Arg of perigee: 048.6984 deg Mean anomaly: 311.5594 deg Mean motion: 14.81907234 rev/day Decay rate: 1.172e-05 rev/day^2 Epoch rev: 15909 Checksum: 353
Satellite: KKS-1 Catalog number: 33493 Epoch time: 11097.85713606 Element set: 466 Inclination: 098.1152 deg RA of node: 225.4932 deg Eccentricity: 0.0018804 Arg of perigee: 267.7626 deg Mean anomaly: 092.1430 deg Mean motion: 14.81497010 rev/day Decay rate: 3.988e-05 rev/day^2 Epoch rev: 11910 Checksum: 306
Satellite: SOHLA-1 Catalog number: 33496 Epoch time: 11096.90004653 Element set: 0384 Inclination: 098.0721 deg RA of node: 207.4821 deg Eccentricity: 0.0006665 Arg of perigee: 359.5320 deg Mean anomaly: 000.5877 deg Mean motion: 14.69584472 rev/day Decay rate: 4.91e-06 rev/day^2 Epoch rev: 11801 Checksum: 298
Satellite: TISAT-1 Catalog number: 36799 Epoch time: 11097.71318270 Element set: 741 Inclination: 098.1068 deg RA of node: 165.2517 deg Eccentricity: 0.0016379 Arg of perigee: 142.1276 deg Mean anomaly: 218.1085 deg Mean motion: 14.80424543 rev/day Decay rate: 1.659e-05 rev/day^2 Epoch rev: 3988 Checksum: 320
Satellite: STUDSAT Catalog number: 36801 Epoch time: 11097.78867209 Element set: 163 Inclination: 098.1114 deg RA of node: 165.1747 deg Eccentricity: 0.0014972 Arg of perigee: 130.7604 deg Mean anomaly: 229.4915 deg Mean motion: 14.80280920 rev/day Decay rate: 5.444e-05 rev/day^2 Epoch rev: 3988 Checksum: 311
Satellite: RAX Catalog number: 37223 Epoch time: 11089.46431449 Element set: 0122 Inclination: 071.9716 deg RA of node: 212.4675 deg Eccentricity: 0.0019443 Arg of perigee: 068.5267 deg Mean anomaly: 291.7923 deg Mean motion: 14.77296529 rev/day Decay rate: 6.60e-06 rev/day^2 Epoch rev: 01926 Checksum: 313
Satellite: OOREOS Catalog number: 37224 Epoch time: 11076.42207246 Element set: 0109 Inclination: 071.9712 deg RA of node: 241.3960 deg Eccentricity: 0.0017800 Arg of perigee: 096.5373 deg Mean anomaly: 263.7815 deg Mean motion: 14.76929834 rev/day Decay rate: 8.68e-06 rev/day^2 Epoch rev: 01732 Checksum: 300
Satellite: FAST1 Catalog number: 37227 Epoch time: 11097.46438851 Element set: 0020 Inclination: 071.9724 deg RA of node: 195.1988 deg Eccentricity: 0.0015711 Arg of perigee: 049.2746 deg Mean anomaly: 310.9727 deg Mean motion: 14.76544822 rev/day Decay rate: 6.49e-06 rev/day^2 Epoch rev: 00232 Checksum: 306
Satellite: NANOSALD Catalog number: 37361 Epoch time: 11089.51706244 Element set: 0111 Inclination: 071.9685 deg RA of node: 211.9413 deg Eccentricity: 0.0022351 Arg of perigee: 010.5692 deg Mean anomaly: 349.6865 deg Mean motion: 14.84084543 rev/day Decay rate: 9.5440e-04 rev/day^2 Epoch rev: 01038 Checksum: 287
Satellite: FAST2 Catalog number: 37380 Epoch time: 11097.33137147 Element set: 0132 Inclination: 071.9755 deg RA of node: 195.5127 deg Eccentricity: 0.0016197 Arg of perigee: 046.7229 deg Mean anomaly: 313.5218 deg Mean motion: 14.76312216 rev/day Decay rate: 2.05e-06 rev/day^2 Epoch rev: 02040 Checksum: 272
/EX SB KEPS @ AMSAT $ORB11097.W Orbital Elements 11097.WEATHER
HR AMSAT ORBITAL ELEMENTS FOR WEATHER SATELLITES FROM WA5QGD FORT WORTH,TX April 7, 2011 Send Subscribe/unsubscribe to KEPS at http://www.amsat.org/mailman/listinfo/keps BID: ORB11097.W TO ALL RADIO AMATEURS BT
